Weather History for Laconia, NH

Change the Weather History Date:

Saturday, October 26, 2013

  Actual Average Record
Temperature  
Mean Temperature 38 °F -  
Max Temperature 48 °F 58 °F 73 °F (1989)
Min Temperature 28 °F 36 °F 24 °F (1997)
Degree Days  
Heating Degree Days 27    
Moisture  
Dew Point 27 °F    
Average Humidity 59    
Maximum Humidity 86    
Minimum Humidity 40    
Precipitation  
Precipitation 0.00 in - - ()
Sea Level Pressure  
Sea Level Pressure 29.97 in    
Wind  
Wind Speed 5 mph (SW)    
Max Wind Speed 15 mph    
Max Gust Speed 23 mph    
Visibility 10 miles    
Events      
Averages and records for this station are not official NWS values.
T = Trace of Precipitation, MM = Missing Value Source: NWS Daily Summary

Daily Weather History Graph

Daily Weather History Graph

Search for Another Location

Airport:

Trip Planner

Search our weather history database for the weather conditions in past years. The results will help you decide how hot, cold, wet, or windy it might be!

Date:

Astronomy

Oct. 26, 2013 Rise Set
Actual Time 7:13 AM EDT 5:44 PM EDT
Civil Twilight 6:44 AM EDT 6:14 PM EDT
Nautical Twilight 6:10 AM EDT 6:47 PM EDT
Astronomical Twilight 5:37 AM EDT 7:20 PM EDT
Moon 11:57 PM EDT (10/26) 1:29 PM EDT (10/26)
Length of Visible Light 11h 29m
Length of Day
10h 30m
Waning Gibbous, 53% of the Moon is Illuminated
Oct 26
Waning Gibbous
Oct 26
Last Quarter
Nov 3
New
Nov 10
First Quarter
Nov 17
Full

Hourly Weather History & Observations

Time (EDT) Temp. Windchill Dew Point Humidity Pressure Visibility Wind Dir Wind Speed Gust Speed Precip Events Conditions
12:15 AM 33.8 °F - 24.8 °F 70% 30.09 in 10.0 mi Calm Calm - N/A   Partly Cloudy
12:35 AM 33.8 °F - 24.8 °F 70% 30.09 in 10.0 mi Calm Calm - N/A   Mostly Cloudy
12:55 AM 33.8 °F - 26.6 °F 75% 30.09 in 10.0 mi Calm Calm - N/A   Mostly Cloudy
1:15 AM 35.6 °F 31.7 °F 24.8 °F 65% 30.09 in 10.0 mi SSW 4.6 mph - N/A   Mostly Cloudy
1:35 AM 33.8 °F 29.6 °F 24.8 °F 70% 30.09 in 10.0 mi West 4.6 mph - N/A   Partly Cloudy
1:55 AM 32.0 °F 28.7 °F 24.8 °F 75% 30.09 in 10.0 mi WSW 3.5 mph - N/A   Clear
2:15 AM 30.2 °F - 24.8 °F 80% 30.09 in 10.0 mi Calm Calm - N/A   Clear
2:35 AM 30.2 °F 26.7 °F 24.8 °F 80% 30.08 in 10.0 mi SW 3.5 mph - N/A   Clear
2:55 AM 30.2 °F 25.4 °F 24.8 °F 80% 30.08 in 10.0 mi WSW 4.6 mph - N/A   Clear
3:15 AM 30.2 °F 26.7 °F 24.8 °F 80% 30.08 in 10.0 mi WSW 3.5 mph - N/A   Clear
3:35 AM 30.2 °F - 24.8 °F 80% 30.08 in 10.0 mi Calm Calm - N/A   Clear
3:55 AM 30.2 °F - 23.0 °F 75% 30.07 in 10.0 mi Calm Calm - N/A   Clear
4:15 AM 28.4 °F 24.6 °F 23.0 °F 80% 30.08 in 10.0 mi WSW 3.5 mph - N/A   Mostly Cloudy
4:35 AM 32.0 °F - 24.8 °F 75% 30.07 in 10.0 mi Calm Calm - N/A   Overcast
4:55 AM 30.2 °F - 26.6 °F 86% 30.07 in 10.0 mi Calm Calm - N/A   Overcast
5:15 AM 33.8 °F 29.6 °F 26.6 °F 75% 30.07 in 10.0 mi WSW 4.6 mph - N/A   Overcast
5:35 AM 33.8 °F 30.8 °F 26.6 °F 75% 30.07 in 10.0 mi SW 3.5 mph - N/A   Overcast
5:55 AM 33.8 °F - 26.6 °F 75% 30.07 in 10.0 mi Calm Calm - N/A   Overcast
6:15 AM 33.8 °F - 26.6 °F 75% 30.07 in 10.0 mi Calm Calm - N/A   Mostly Cloudy
6:35 AM 32.0 °F - 24.8 °F 75% 30.07 in 10.0 mi Calm Calm - N/A   Mostly Cloudy
6:55 AM 32.0 °F - 26.6 °F 80% 30.07 in 10.0 mi Calm Calm - N/A   Mostly Cloudy
7:15 AM 32.0 °F - 26.6 °F 80% 30.06 in 10.0 mi Calm Calm - N/A   Clear
7:35 AM 30.2 °F 25.4 °F 26.6 °F 86% 30.06 in 10.0 mi WSW 4.6 mph - N/A   Clear
7:55 AM 33.8 °F 29.6 °F 26.6 °F 75% 30.06 in 10.0 mi West 4.6 mph - N/A   Clear
8:15 AM 35.6 °F 30.7 °F 28.4 °F 75% 30.06 in 10.0 mi West 5.8 mph - N/A   Clear
8:35 AM 35.6 °F 31.7 °F 28.4 °F 75% 30.06 in 10.0 mi WSW 4.6 mph - N/A   Mostly Cloudy
8:55 AM 37.4 °F 34.9 °F 30.2 °F 75% 30.07 in 10.0 mi West 3.5 mph - N/A   Overcast
9:15 AM 39.2 °F 34.2 °F 30.2 °F 70% 30.06 in 10.0 mi SSW 6.9 mph - N/A   Mostly Cloudy
9:35 AM 39.2 °F 32.5 °F 30.2 °F 70% 30.05 in 10.0 mi South 10.4 mph - N/A   Clear
9:55 AM 41.0 °F 37.1 °F 30.2 °F 65% 30.04 in 10.0 mi SW 5.8 mph - N/A   Clear
10:15 AM 42.8 °F 37.5 °F 30.2 °F 61% 30.03 in 10.0 mi SSW 9.2 mph - N/A   Clear
10:35 AM 42.8 °F 37.5 °F 30.2 °F 61% 30.02 in 10.0 mi WSW 9.2 mph - N/A   Clear
10:55 AM 42.8 °F 37.0 °F 30.2 °F 61% 30.02 in 10.0 mi SSW 10.4 mph 17.3 mph N/A   Clear
11:15 AM 42.8 °F 37.5 °F 30.2 °F 61% 30.00 in 10.0 mi SW 9.2 mph - N/A   Clear
11:35 AM 44.6 °F 38.4 °F 30.2 °F 57% 30.00 in 10.0 mi SW 12.7 mph 18.4 mph N/A   Clear
11:55 AM 44.6 °F 38.4 °F 28.4 °F 53% 29.98 in 10.0 mi SSW 12.7 mph 17.3 mph N/A   Clear
12:15 PM 44.6 °F 39.2 °F 28.4 °F 53% 29.97 in 10.0 mi SW 10.4 mph - N/A   Clear
12:35 PM 44.6 °F 38.1 °F 26.6 °F 49% 29.96 in 10.0 mi SSW 13.8 mph 17.3 mph N/A   Clear
12:55 PM 46.4 °F 40.7 °F 26.6 °F 46% 29.95 in 10.0 mi SSW 12.7 mph 19.6 mph N/A   Partly Cloudy
1:15 PM 46.4 °F 40.7 °F 26.6 °F 46% 29.94 in 10.0 mi SSW 12.7 mph 17.3 mph N/A   Clear
1:35 PM 46.4 °F 40.7 °F 26.6 °F 46% 29.93 in 10.0 mi South 12.7 mph 19.6 mph N/A   Clear
1:55 PM 46.4 °F 40.1 °F 26.6 °F 46% 29.92 in 10.0 mi SW 15.0 mph 20.7 mph N/A   Clear
2:15 PM 46.4 °F 40.4 °F 24.8 °F 43% 29.91 in 10.0 mi SSW 13.8 mph 23.0 mph N/A   Partly Cloudy
2:35 PM 46.4 °F 40.4 °F 24.8 °F 43% 29.91 in 10.0 mi SSW 13.8 mph 19.6 mph N/A   Partly Cloudy
2:55 PM 46.4 °F 40.7 °F 24.8 °F 43% 29.91 in 10.0 mi SSW 12.7 mph 19.6 mph N/A   Clear
3:15 PM 46.4 °F 42.4 °F 24.8 °F 43% 29.90 in 10.0 mi SSW 8.1 mph - N/A   Scattered Clouds
3:35 PM 46.4 °F 42.9 °F 24.8 °F 43% 29.89 in 10.0 mi SSW 6.9 mph - N/A   Scattered Clouds
3:55 PM 46.4 °F 42.9 °F 24.8 °F 43% 29.88 in 10.0 mi SSW 6.9 mph - N/A   Clear
4:15 PM 46.4 °F 44.3 °F 24.8 °F 43% 29.87 in 10.0 mi South 4.6 mph - N/A   Clear
4:35 PM 46.4 °F 45.2 °F 24.8 °F 43% 29.86 in 10.0 mi South 3.5 mph - N/A   Scattered Clouds
4:55 PM 46.4 °F 45.2 °F 26.6 °F 46% 29.86 in 10.0 mi South 3.5 mph - N/A   Partly Cloudy
5:15 PM 46.4 °F 45.2 °F 26.6 °F 46% 29.85 in 10.0 mi South 3.5 mph - N/A   Clear
5:35 PM 44.6 °F 43.1 °F 28.4 °F 53% 29.85 in 10.0 mi WNW 3.5 mph - N/A   Clear
5:55 PM 44.6 °F - 28.4 °F 53% 29.85 in 10.0 mi Calm Calm - N/A   Clear
6:15 PM 42.8 °F 39.3 °F 28.4 °F 57% 29.84 in 10.0 mi South 5.8 mph - N/A   Partly Cloudy
6:35 PM 46.4 °F 42.9 °F 26.6 °F 46% 29.84 in 10.0 mi SSW 6.9 mph - N/A   Mostly Cloudy
6:55 PM 48.2 °F - 26.6 °F 43% 29.85 in 10.0 mi SSW 8.1 mph - N/A   Overcast
7:15 PM 48.2 °F - 24.8 °F 40% 29.85 in 10.0 mi SSW 8.1 mph - N/A   Mostly Cloudy
7:35 PM 48.2 °F - 26.6 °F 43% 29.85 in 10.0 mi SW 9.2 mph - N/A   Clear
7:55 PM 46.4 °F 41.9 °F 24.8 °F 43% 29.84 in 10.0 mi SW 9.2 mph - N/A   Clear
8:15 PM 46.4 °F 41.1 °F 26.6 °F 46% 29.84 in 10.0 mi SW 11.5 mph - N/A   Clear
8:35 PM 46.4 °F 41.1 °F 26.6 °F 46% 29.84 in 10.0 mi SW 11.5 mph - N/A   Clear
8:55 PM 46.4 °F 41.5 °F 26.6 °F 46% 29.84 in 10.0 mi SW 10.4 mph - N/A   Clear
9:15 PM 46.4 °F 41.9 °F 26.6 °F 46% 29.84 in 10.0 mi SW 9.2 mph - N/A   Partly Cloudy
9:35 PM 46.4 °F 43.5 °F 26.6 °F 46% 29.85 in 10.0 mi SSW 5.8 mph - N/A   Partly Cloudy
9:55 PM 46.4 °F 43.5 °F 26.6 °F 46% 29.85 in 10.0 mi SW 5.8 mph - N/A   Clear
10:15 PM 46.4 °F 41.9 °F 26.6 °F 46% 29.84 in 10.0 mi SW 9.2 mph - N/A   Clear
10:35 PM 46.4 °F 42.4 °F 26.6 °F 46% 29.84 in 10.0 mi SSW 8.1 mph - N/A   Partly Cloudy
10:55 PM 46.4 °F 43.5 °F 26.6 °F 46% 29.83 in 10.0 mi SSW 5.8 mph - N/A   Partly Cloudy
11:15 PM 46.4 °F 42.9 °F 26.6 °F 46% 29.83 in 10.0 mi SSW 6.9 mph - N/A   Scattered Clouds
11:35 PM 44.6 °F 40.7 °F 26.6 °F 49% 29.83 in 10.0 mi SSW 6.9 mph - N/A   Mostly Cloudy
11:55 PM 46.4 °F 41.5 °F 26.6 °F 46% 29.82 in 10.0 mi SSW 10.4 mph - N/A   Mostly Cloudy